Regional Weather Roundup
Issued by NWS New Orleans/Baton Rouge, LA

Home | Current Version | Previous Version | Text Only | Print | Product List | Glossary Off
Versions: 1 2 3 4 5 6 7 8 9 10 11 12 13 14 15 16 17 18 19 20 21 22 23 24 25 26 27 28 29 30 31 32 33 34 35 36 37 38 39 40 41 42 43 44 45 46 47 48 49 50

972
ASUS44 KLIX 202001
RWRLIX
NEW ORLEANS REGIONAL WEATHER ROUNDUP
NATIONAL WEATHER SERVICE NEW ORLEANS LA
300 PM CDT MON OCT 20 2014

NOTE: "FAIR" INDICATES FEW OR NO CLOUDS BELOW 12,000 FEET WITH NO
      SIGNIFICANT WEATHER AND/OR OBSTRUCTIONS TO VISIBILITY.
      SKY/WX - SKY CONDITION AND SIGNIFICANT WEATHER.
      TMP - AIR TEMPERATURE.     DP    - DEWPOINT TEMPERATURE.
      RH  - RELATIVE HUMIDITY.   PRES  - PRESSURE.
      HI  - HEAT INDEX.          WCI   - WIND CHILL INDEX.

*  THESE STATIONS ARE NOT NWS OR FAA STATIONS AND ARE NOT UNDER
   NWS QUALITY CONTROL.

LAZ038-040-048-061>063-065>067-069-202100-
SOUTHEAST LOUISIANA

CITY           SKY/WX    TMP DP  RH WIND       PRES   REMARKS
N.O. AUDUBON   NOT AVBL
N.O. INTL ARPT MOSUNNY   78  57  48 N7        30.00F
N.O. LAKEFRONT SUNNY     78  58  49 N9        30.01F
N.O. DOWNTOWN*   N/A     79  55  44 N8        30.01S
SLIDELL        MOSUNNY   79  53  40 N9        29.99F
BATON ROUGE    PTSUNNY   76  53  44 N5        30.01F
BOOTHVILLE     PTSUNNY   76  67  73 NE8       30.00S
BELLE CHASSE   PTSUNNY   79  57  46 E8        30.00S
BOGALUSA*        N/A     79  46  31 CALM      30.02F
NEW ROADS*       N/A     76  54  47 N6        30.02F
GONZALES*        N/A     78  55  44 N3        30.00S
HAMMOND*       NOT AVBL
HOUMA*         SUNNY     81  59  47 NE7       29.99F
PORT FOURCHON* CLEAR     77  61  57 NE8       30.02S

$$

MSZ070-080>082-202100-
SOUTHERN MISSISSIPPI

CITY           SKY/WX    TMP DP  RH WIND       PRES   REMARKS
MCCOMB         MOSUNNY   74  48  39 N6        30.02F
GULFPORT       SUNNY     79  47  32 CALM      29.99F
BILOXI         SUNNY     79  51  37 SW8       29.99F
PASCAGOULA     MOSUNNY   81  51  35 VRB5      30.00F
STENNIS ARPT*  SUNNY     79  45  29 VRB3      30.00F

$$

COASTAL OBSERVATIONS
LAKE AND NEARSHORE STATIONS

STATION/POSITION TIME  TEMP    WIND        PRES    WAVE
                       AIR SEA DIR/SP/G            HT/PER
                 (UTC) (F)     (DEG/KT/KT) (MB)    (FT/S)
PASCAGOULA       1900   76     210/  8/ 11 1015.3
WAVELAND YACHT   1900   78      90/  2/  3 1015.3
GRAND ISLE       1900   77 78   90/  5/  7 1016.2
SOUTHWEST PASS   1900   83 85              1015.8
NEW CANAL        1900   72 73   20/  8/ 10 1016.5
SHELL BEACH      1900   72 70   10/ 11/ 12 1015.9

OFFSHORE STATIONS

STATION/POSITION TIME  TEMP    WIND        PRES    WAVE
                       AIR SEA DIR/SP/G            HT/PER
                 (UTC) (F)     (DEG/KT/KT) (MB)    (FT/S)
64 S DAUPHIN ISL 1947   76 81   50/  6/  6 1015.9    1/ 4

$$




USA.gov is the U.S. government's official web portal to all federal, state and local government web resources and services.